Location: Newark
(42.9277°N, 71.8621°W)
Time: 18:43:32
(UTC+00:00)

Transit 4A - Pass Details

Date: 15 May 2021
Orbit: 872 x 973 km, 66.8° (Epoch: 15 June)

Event Time Altitude Azimuth Distance (km) Brightness Sun altitude
Rises 08:19:22 0° 321° (NW) 3,481 10.9 -10.8°
Reaches altitude 10° 08:22:05 10° 312° (NW) 2,531 10.1 -10.4°
Maximum altitude 08:27:11 33° 250° (WSW) 1,437 8.4 -9.6°
Drops below altitude 10° 08:32:17 10° 189° (S) 2,514 9.8 -8.9°
Sets 08:34:59 0° 179° (S) 3,454 10.5 -8.5°
